Home   Weather   Khon Kaen   Past weeks

Flag for Thailand Past Weather in Khon Kaen, Thailand — Yesterday and Last 2 Weeks

73 °F

Passing clouds.

Feels Like: 68 °F
Forecast: 76 / 87 °F
Wind: 2 mph from North

Location: Khon Kaen Airport

Current Time: Oct 24, 2016 at 3:25:58 AM

Latest Report: Oct 24, 2016 at 3:00 AM

Visibility: 6 mi

Pressure: 29.74 "Hg

Humidity: 100%

Dew Point: 73 °F

Location of Khon KaenLocation

Past Weather in Khon Kaen — Graph


Khon Kaen Temperature Yesterday

Maximum temperature yesterday: 91 °F (at 12:00 PM)
Minimum temperature yesterday: 75 °F (at 3:00 AM)
Average temperature yesterday: 80 °F

High & Low Weather Summary for the Past Weeks

High93 °F (Oct 19, 3:00 PM)100% (Oct 9, 4:00 AM)29.86 "Hg (Oct 9, 4:00 AM)
Low72 °F (Oct 18, 4:00 AM)52% (Oct 17, 3:00 PM)29.59 "Hg (Oct 19, 4:00 PM)
Average81 °F83%29.76 "Hg
* Reported Oct 9 2:00 AM — Oct 24 2:00 AM, Khon Kaen, Weather by CustomWeather, © 2016

Note: Actual official high and low records may vary slightly from our data, if they occured in-between our weather recording intervals... More about our weather records


Khon Kaen Weather History for the Previous 24 Hours

Scroll right to see more
Time TempWeatherWind HumidityBarometerVisibility
2:00 AM
Mon, Oct 24
75 °FPassing clouds.3 mph100%29.74 "Hg6 mi
1:00 AM75 °FPassing clouds.3 mph100%29.77 "HgN/A
12:00 AM75 °FPassing clouds.3 mph100%29.77 "HgN/A
11:00 PM
Sun, Oct 23
75 °FPassing clouds.3 mph100%29.77 "HgN/A
10:00 PM75 °FPassing clouds.No wind100%29.80 "HgN/A
9:00 PM77 °FPassing clouds.2 mph94%29.77 "HgN/A
8:00 PM77 °FPassing clouds.1 mph94%29.74 "HgN/A
7:00 PM75 °FPassing clouds.1 mph100%29.71 "HgN/A
6:00 PM77 °FPassing clouds.No wind94%29.68 "HgN/A
5:00 PM77 °FScattered clouds.2 mph94%29.68 "HgN/A
4:00 PM81 °FThunderstorms. Scattered clouds.8 mph84%29.68 "Hg6 mi
3:00 PM91 °FScattered clouds.1 mph67%29.68 "HgN/A
2:00 PM79 °FRain. Scattered clouds.10 mph89%29.71 "Hg6 mi
1:00 PM90 °FPartly sunny.2 mph63%29.74 "HgN/A
12:00 PM91 °FScattered clouds.2 mph59%29.77 "HgN/A
11:00 AM90 °FPassing clouds.3 mph71%29.80 "Hg6 mi
10:00 AM88 °FPassing clouds.3 mph70%29.83 "Hg6 mi
9:00 AM86 °FClear.2 mph75%29.83 "Hg4 mi
8:00 AM81 °FFog.No wind94%29.80 "Hg2 mi
7:00 AM77 °FFog.No wind100%29.77 "Hg2 mi
6:00 AM75 °FFog.1 mph100%29.77 "Hg2 mi
5:00 AM75 °FFog.2 mph100%29.74 "Hg3 mi
4:00 AM75 °FClear.No wind100%29.74 "Hg5 mi
3:00 AM75 °FClear.No wind100%29.74 "Hg6 mi
Weather by CustomWeather, © 2016

See weather overviewHow to use our weather pages